[ hide orbit diagram ]
For accurate long-term ephemerides, please instead use our Horizons system.This orbit viewer was implemented using two-body methods, and hence should not be used for determining accurate long-term trajectories (over several years or decades) or planetary encounter circumstances.
Orbital Elements at Epoch 2459000.5 (2020-May-31.0) TDB
Reference: JPL 14 (heliocentric ecliptic J2000)
Element | Value | Uncertainty (1-sigma) | Units |
e | .1244727767937959 | 8.4036e-08 | |
a | 2.774278840414462 | 6.2017e-08 | au |
q | 2.428956649547802 | 2.0933e-07 | au |
i | 15.89156326264203 | 7.8163e-06 | deg |
node | 128.5058746612017 | 2.6211e-05 | deg |
peri | 228.9136623296928 | 4.1437e-05 | deg |
M | 295.5568214917092 | 3.9248e-05 | deg |
tp | 2459302.632916650570 (2021-Mar-29.13291665) | 0.00019114 | TDB |
period | 1687.810137735707 4.62 | 5.6595e-05 1.549e-07 | d yr |
n | .2132941330018081 | 7.1521e-09 | deg/d |
Q | 3.119601031281122 | 6.9737e-08 | au |
|
| | Orbit Determination Parameters
Additional Information
|
[ hide covariance matrix ]
Orbital Elements at Epoch 2457229.5 (2015-Jul-26.0) TDB
Reference: JPL 14 (heliocentric ecliptic J2000)
Element | Value | Uncertainty (1-sigma) | Units |
e | .1250445913130161 | 8.3966e-08 | |
q | 2.42518247252151 | 2.0867e-07 | au |
tp | 2457620.640863237495 (2016-Aug-20.14086324) | 0.00015515 | TDB |
node | 128.5510490915234 | 2.6241e-05 | deg |
peri | 229.7710169339596 | 4.1336e-05 | deg |
i | 15.88623375991518 | 7.8141e-06 | deg |
|
| | Orbit Determination Parameters
Additional Information
|
Orbit Covariance (6×6)
|
|
e |
q |
tp |
node |
peri |
i |
e |
7.050238623623088E-15 |
-1.709567605159823E-14 |
2.265583972423773E-12 |
3.087164859675332E-14 |
4.895109999281247E-13 |
-1.951804772331291E-15 |
q |
-1.709567605159823E-14 |
4.354254783240062E-14 |
-2.079862248138416E-12 |
-6.792911466241646E-14 |
-5.917318979580649E-13 |
1.921374991836511E-14 |
tp |
2.265583972423773E-12 |
-2.079862248138416E-12 |
2.407073446627035E-8 |
4.388101563355706E-11 |
4.998286063849541E-9 |
5.16181655721602E-11 |
node |
3.087164859675332E-14 |
-6.792911466241646E-14 |
4.388101563355706E-11 |
6.885679167723587E-10 |
-6.516699149419454E-10 |
-2.062821268593771E-13 |
peri |
4.895109999281247E-13 |
-5.917318979580649E-13 |
4.998286063849541E-9 |
-6.516699149419454E-10 |
1.708697843136388E-9 |
1.048247039826405E-11 |
i |
-1.951804772331291E-15 |
1.921374991836511E-14 |
5.16181655721602E-11 |
-2.062821268593771E-13 |
1.048247039826405E-11 |
6.105980539393057E-11 |
|
Physical Parameter Table
Parameter |
Symbol |
Value |
Units |
Sigma |
Reference |
Notes |
absolute magnitude |
H |
16.7 |
|
n/a |
MPO434642 |
|
|
442242 (2011 MT10) Discovered 2011-Jun-25 by Mt. Lemmon Survey at Mount Lemmon |
Reference: | Last Updated: 2015-09-02 |
|
|